Regional Weather Roundup
Issued by NWS

Home | Current Version | Previous Version | Text Only | Print | Product List | Glossary On
Versions: 1 2 3 4 5 6 7 8 9 10 11 12 13 14 15 16 17 18 19 20 21 22 23 24 25 26 27 28 29 30 31 32 33 34 35 36 37 38 39 40 41 42 43 44 45 46 47 48 49 50
952
ASUS43 KFSD 120110
RWRSD

WEATHER ROUNDUP FOR SOUTH DAKOTA
NATIONAL WEATHER SERVICE SIOUX FALLS SD
700 PM CST THU FEB 11 2016

NOTE: "FAIR" INDICATES FEW OR NO CLOUDS BELOW 12,000 FEET WITH NO
SIGNIFICANT WEATHER AND/OR OBSTRUCTIONS TO VISIBILITY.


SDZ001>005-009-010-012>017-120200-
NORTHWEST AND NORTH CENTRAL SOUTH DAKOTA

CITY           SKY/WX    TMP DP  RH WIND       PRES   REMARKS
BUFFALO          N/A     32  29  88 N10       30.12R WCI  24
FAITH            N/A     30  25  81 N14       30.16R WCI  19
MOBRIDGE       CLOUDY    28  23  81 N7        30.18R WCI  21
$$

SDZ012>016-024>037-041>051-057-063-072>074-120200-
SOUTHWEST AND SOUTH CENTRAL SOUTH DAKOTA

CITY           SKY/WX    TMP DP  RH WIND       PRES   REMARKS
RAPID CTY ARPT PTCLDY    38  31  76 N13       30.14R
PIERRE         CLOUDY    28  24  85 NE3       30.19R
CUSTER         CLEAR     41  21  44 NW17G30   30.13R
ELLSWORTH AFB  PTCLDY    39  32  76 N14       30.14R
PHILIP         CLOUDY    32  28  85 E8        30.17R WCI  25
PINE RIDGE     PTCLDY    44  30  57 N5        30.14R
SPEARFISH      CLOUDY    43  28  56 NW9       30.18R
WINNER         CLOUDY    29  25  85 NE13      30.15R WCI  19
$$

SDZ004>011-016>023-039-040-120200-
NORTHEAST SOUTH DAKOTA

CITY           SKY/WX    TMP DP  RH WIND       PRES   REMARKS
ABERDEEN       MOCLDY    18  12  77 N8        30.23R WCI   8
WATERTOWN      CLOUDY    15  12  88 NW3       30.16R
BROOKINGS      FLURRIES  15  12  88 CALM      30.17R
SISSETON         N/A     15  11  83 N8        30.23R WCI   4
$$

SDZ017-020-022-023-036>040-048>070-120200-
SOUTHEAST SOUTH DAKOTA

CITY           SKY/WX    TMP DP  RH WIND       PRES   REMARKS
SIOUX FALLS    LGT SNOW  16  13  88 CALM      30.19R FOG
HURON          CLOUDY    21  17  84 CALM      30.20R
CHAMBERLAIN    CLOUDY    24  22  94 CALM      30.19R
MITCHELL       PTCLDY    18  15  88 E5        30.21R WCI  11
YANKTON        CLOUDY    19  16  86 E6        30.19R WCI  11
$$

ABBREVIATIONS USED IN REMARKS
   TC - TEMPERATURE IN CELSIUS
  WCI - WIND CHILL INDEX
   HX - HEAT INDEX
  VSB - VISIBILITY





USA.gov is the U.S. government's official web portal to all federal, state and local government web resources and services.